Index of /20260507/WXO-DD/model_gdps/15km/00/057
Name Last modified Size Description
Parent Directory -
20260507T00Z_MSC_GDPS_AbsoluteVorticity_IsbL-0200_LatLon0.15_PT057H.grib2 2026-05-07 04:16 1.5M
20260507T00Z_MSC_GDPS_AbsoluteVorticity_IsbL-0250_LatLon0.15_PT057H.grib2 2026-05-07 04:16 1.3M
20260507T00Z_MSC_GDPS_AbsoluteVorticity_IsbL-0500_LatLon0.15_PT057H.grib2 2026-05-07 04:16 1.5M
20260507T00Z_MSC_GDPS_AbsoluteVorticity_IsbL-0700_LatLon0.15_PT057H.grib2 2026-05-07 04:16 1.3M
20260507T00Z_MSC_GDPS_AbsoluteVorticity_IsbL-0850_LatLon0.15_PT057H.grib2 2026-05-07 04:16 1.6M
20260507T00Z_MSC_GDPS_AirTemp_AGL-120m_LatLon0.15_PT057H.grib2 2026-05-07 04:16 899K
20260507T00Z_MSC_GDPS_AirTemp_AGL-2m_LatLon0.15_PT057H.grib2 2026-05-07 04:16 1.0M
20260507T00Z_MSC_GDPS_AirTemp_AGL-40m_LatLon0.15_PT057H.grib2 2026-05-07 04:16 800K
20260507T00Z_MSC_GDPS_AirTemp_AGL-80m_LatLon0.15_PT057H.grib2 2026-05-07 04:16 907K
20260507T00Z_MSC_GDPS_AirTemp_IsbL-0001_LatLon0.15_PT057H.grib2 2026-05-07 04:16 664K
20260507T00Z_MSC_GDPS_AirTemp_IsbL-0005_LatLon0.15_PT057H.grib2 2026-05-07 04:16 535K
20260507T00Z_MSC_GDPS_AirTemp_IsbL-0010_LatLon0.15_PT057H.grib2 2026-05-07 04:16 704K
20260507T00Z_MSC_GDPS_AirTemp_IsbL-0020_LatLon0.15_PT057H.grib2 2026-05-07 04:16 792K
20260507T00Z_MSC_GDPS_AirTemp_IsbL-0030_LatLon0.15_PT057H.grib2 2026-05-07 04:16 844K
20260507T00Z_MSC_GDPS_AirTemp_IsbL-0050_LatLon0.15_PT057H.grib2 2026-05-07 04:16 890K
20260507T00Z_MSC_GDPS_AirTemp_IsbL-0100_LatLon0.15_PT057H.grib2 2026-05-07 04:16 1.0M
20260507T00Z_MSC_GDPS_AirTemp_IsbL-0150_LatLon0.15_PT057H.grib2 2026-05-07 04:16 1.0M
20260507T00Z_MSC_GDPS_AirTemp_IsbL-0175_LatLon0.15_PT057H.grib2 2026-05-07 04:16 965K
20260507T00Z_MSC_GDPS_AirTemp_IsbL-0200_LatLon0.15_PT057H.grib2 2026-05-07 04:16 1.0M
20260507T00Z_MSC_GDPS_AirTemp_IsbL-0225_LatLon0.15_PT057H.grib2 2026-05-07 04:16 1.0M
20260507T00Z_MSC_GDPS_AirTemp_IsbL-0250_LatLon0.15_PT057H.grib2 2026-05-07 04:16 1.0M
20260507T00Z_MSC_GDPS_AirTemp_IsbL-0275_LatLon0.15_PT057H.grib2 2026-05-07 04:16 1.0M
20260507T00Z_MSC_GDPS_AirTemp_IsbL-0300_LatLon0.15_PT057H.grib2 2026-05-07 04:16 1.0M
20260507T00Z_MSC_GDPS_AirTemp_IsbL-0350_LatLon0.15_PT057H.grib2 2026-05-07 04:16 934K
20260507T00Z_MSC_GDPS_AirTemp_IsbL-0400_LatLon0.15_PT057H.grib2 2026-05-07 04:16 948K
20260507T00Z_MSC_GDPS_AirTemp_IsbL-0450_LatLon0.15_PT057H.grib2 2026-05-07 04:16 971K
20260507T00Z_MSC_GDPS_AirTemp_IsbL-0500_LatLon0.15_PT057H.grib2 2026-05-07 04:16 1.0M
20260507T00Z_MSC_GDPS_AirTemp_IsbL-0550_LatLon0.15_PT057H.grib2 2026-05-07 04:16 805K
20260507T00Z_MSC_GDPS_AirTemp_IsbL-0600_LatLon0.15_PT057H.grib2 2026-05-07 04:16 894K
20260507T00Z_MSC_GDPS_AirTemp_IsbL-0650_LatLon0.15_PT057H.grib2 2026-05-07 04:16 918K
20260507T00Z_MSC_GDPS_AirTemp_IsbL-0700_LatLon0.15_PT057H.grib2 2026-05-07 04:16 955K
20260507T00Z_MSC_GDPS_AirTemp_IsbL-0750_LatLon0.15_PT057H.grib2 2026-05-07 04:16 1.0M
20260507T00Z_MSC_GDPS_AirTemp_IsbL-0800_LatLon0.15_PT057H.grib2 2026-05-07 04:16 1.1M
20260507T00Z_MSC_GDPS_AirTemp_IsbL-0850_LatLon0.15_PT057H.grib2 2026-05-07 04:16 1.1M
20260507T00Z_MSC_GDPS_AirTemp_IsbL-0875_LatLon0.15_PT057H.grib2 2026-05-07 04:16 1.2M
20260507T00Z_MSC_GDPS_AirTemp_IsbL-0900_LatLon0.15_PT057H.grib2 2026-05-07 04:16 1.2M
20260507T00Z_MSC_GDPS_AirTemp_IsbL-0925_LatLon0.15_PT057H.grib2 2026-05-07 04:16 1.1M
20260507T00Z_MSC_GDPS_AirTemp_IsbL-0950_LatLon0.15_PT057H.grib2 2026-05-07 04:16 1.1M
20260507T00Z_MSC_GDPS_AirTemp_IsbL-0970_LatLon0.15_PT057H.grib2 2026-05-07 04:16 1.1M
20260507T00Z_MSC_GDPS_AirTemp_IsbL-0985_LatLon0.15_PT057H.grib2 2026-05-07 04:16 1.1M
20260507T00Z_MSC_GDPS_AirTemp_IsbL-1000_LatLon0.15_PT057H.grib2 2026-05-07 04:16 1.1M
20260507T00Z_MSC_GDPS_AirTemp_IsbL-1015_LatLon0.15_PT057H.grib2 2026-05-07 04:16 1.1M
20260507T00Z_MSC_GDPS_Albedo_Sfc_LatLon0.15_PT057H.grib2 2026-05-07 04:16 242K
20260507T00Z_MSC_GDPS_CAPE_Sfc_LatLon0.15_PT057H.grib2 2026-05-07 04:16 3.8M
20260507T00Z_MSC_GDPS_CIN_Sfc_LatLon0.15_PT057H.grib2 2026-05-07 04:16 2.8M
20260507T00Z_MSC_GDPS_CloudWater_EAtm_LatLon0.15_PT057H.grib2 2026-05-07 04:16 538K
20260507T00Z_MSC_GDPS_ConvectivePrecip-Accum_Sfc_LatLon0.15_PT057H.grib2 2026-05-07 04:16 2.9M
20260507T00Z_MSC_GDPS_DewPointDepression_AGL-2m_LatLon0.15_PT057H.grib2 2026-05-07 04:16 758K
20260507T00Z_MSC_GDPS_DewPointDepression_IsbL-0010_LatLon0.15_PT057H.grib2 2026-05-07 04:16 68K
20260507T00Z_MSC_GDPS_DewPointDepression_IsbL-0020_LatLon0.15_PT057H.grib2 2026-05-07 04:16 90K
20260507T00Z_MSC_GDPS_DewPointDepression_IsbL-0030_LatLon0.15_PT057H.grib2 2026-05-07 04:16 97K
20260507T00Z_MSC_GDPS_DewPointDepression_IsbL-0050_LatLon0.15_PT057H.grib2 2026-05-07 04:16 387K
20260507T00Z_MSC_GDPS_DewPointDepression_IsbL-0100_LatLon0.15_PT057H.grib2 2026-05-07 04:16 400K
20260507T00Z_MSC_GDPS_DewPointDepression_IsbL-0150_LatLon0.15_PT057H.grib2 2026-05-07 04:16 502K
20260507T00Z_MSC_GDPS_DewPointDepression_IsbL-0175_LatLon0.15_PT057H.grib2 2026-05-07 04:16 601K
20260507T00Z_MSC_GDPS_DewPointDepression_IsbL-0200_LatLon0.15_PT057H.grib2 2026-05-07 04:16 698K
20260507T00Z_MSC_GDPS_DewPointDepression_IsbL-0225_LatLon0.15_PT057H.grib2 2026-05-07 04:16 784K
20260507T00Z_MSC_GDPS_DewPointDepression_IsbL-0250_LatLon0.15_PT057H.grib2 2026-05-07 04:16 887K
20260507T00Z_MSC_GDPS_DewPointDepression_IsbL-0275_LatLon0.15_PT057H.grib2 2026-05-07 04:16 916K
20260507T00Z_MSC_GDPS_DewPointDepression_IsbL-0300_LatLon0.15_PT057H.grib2 2026-05-07 04:16 955K
20260507T00Z_MSC_GDPS_DewPointDepression_IsbL-0350_LatLon0.15_PT057H.grib2 2026-05-07 04:16 965K
20260507T00Z_MSC_GDPS_DewPointDepression_IsbL-0400_LatLon0.15_PT057H.grib2 2026-05-07 04:16 1.0M
20260507T00Z_MSC_GDPS_DewPointDepression_IsbL-0450_LatLon0.15_PT057H.grib2 2026-05-07 04:16 1.0M
20260507T00Z_MSC_GDPS_DewPointDepression_IsbL-0500_LatLon0.15_PT057H.grib2 2026-05-07 04:16 1.0M
20260507T00Z_MSC_GDPS_DewPointDepression_IsbL-0550_LatLon0.15_PT057H.grib2 2026-05-07 04:16 1.0M
20260507T00Z_MSC_GDPS_DewPointDepression_IsbL-0600_LatLon0.15_PT057H.grib2 2026-05-07 04:16 1.0M
20260507T00Z_MSC_GDPS_DewPointDepression_IsbL-0650_LatLon0.15_PT057H.grib2 2026-05-07 04:16 1.1M
20260507T00Z_MSC_GDPS_DewPointDepression_IsbL-0700_LatLon0.15_PT057H.grib2 2026-05-07 04:16 1.1M
20260507T00Z_MSC_GDPS_DewPointDepression_IsbL-0750_LatLon0.15_PT057H.grib2 2026-05-07 04:16 1.1M
20260507T00Z_MSC_GDPS_DewPointDepression_IsbL-0800_LatLon0.15_PT057H.grib2 2026-05-07 04:16 1.1M
20260507T00Z_MSC_GDPS_DewPointDepression_IsbL-0850_LatLon0.15_PT057H.grib2 2026-05-07 04:16 1.2M
20260507T00Z_MSC_GDPS_DewPointDepression_IsbL-0875_LatLon0.15_PT057H.grib2 2026-05-07 04:16 1.1M
20260507T00Z_MSC_GDPS_DewPointDepression_IsbL-0900_LatLon0.15_PT057H.grib2 2026-05-07 04:16 1.1M
20260507T00Z_MSC_GDPS_DewPointDepression_IsbL-0925_LatLon0.15_PT057H.grib2 2026-05-07 04:16 1.0M
20260507T00Z_MSC_GDPS_DewPointDepression_IsbL-0950_LatLon0.15_PT057H.grib2 2026-05-07 04:16 1.0M
20260507T00Z_MSC_GDPS_DewPointDepression_IsbL-0970_LatLon0.15_PT057H.grib2 2026-05-07 04:16 1.0M
20260507T00Z_MSC_GDPS_DewPointDepression_IsbL-0985_LatLon0.15_PT057H.grib2 2026-05-07 04:16 972K
20260507T00Z_MSC_GDPS_DewPointDepression_IsbL-1000_LatLon0.15_PT057H.grib2 2026-05-07 04:16 960K
20260507T00Z_MSC_GDPS_DewPointDepression_IsbL-1015_LatLon0.15_PT057H.grib2 2026-05-07 04:16 903K
20260507T00Z_MSC_GDPS_DewPoint_AGL-2m_LatLon0.15_PT057H.grib2 2026-05-07 04:16 607K
20260507T00Z_MSC_GDPS_DownwardLongwaveRadiationFlux-Accum_Sfc_LatLon0.15_PT057H.grib2 2026-05-07 04:16 859K
20260507T00Z_MSC_GDPS_DownwardShortwaveRadiationFlux-Accum_NTAtm_LatLon0.15_PT057H.grib2 2026-05-07 04:16 200K
20260507T00Z_MSC_GDPS_DownwardShortwaveRadiationFlux-Accum_Sfc_LatLon0.15_PT057H.grib2 2026-05-07 04:16 1.1M
20260507T00Z_MSC_GDPS_FreezingRain-Accum1h_Sfc_LatLon0.15_PT057H.grib2 2026-05-07 04:16 48K
20260507T00Z_MSC_GDPS_FreezingRain-Accum3h_Sfc_LatLon0.15_PT057H.grib2 2026-05-07 04:16 57K
20260507T00Z_MSC_GDPS_FreezingRain-Accum_Sfc_LatLon0.15_PT057H.grib2 2026-05-07 04:16 255K
20260507T00Z_MSC_GDPS_GeopotentialHeight_IsbL-0001_LatLon0.15_PT057H.grib2 2026-05-07 04:16 433K
20260507T00Z_MSC_GDPS_GeopotentialHeight_IsbL-0005_LatLon0.15_PT057H.grib2 2026-05-07 04:16 485K
20260507T00Z_MSC_GDPS_GeopotentialHeight_IsbL-0010_LatLon0.15_PT057H.grib2 2026-05-07 04:16 478K
20260507T00Z_MSC_GDPS_GeopotentialHeight_IsbL-0020_LatLon0.15_PT057H.grib2 2026-05-07 04:16 419K
20260507T00Z_MSC_GDPS_GeopotentialHeight_IsbL-0030_LatLon0.15_PT057H.grib2 2026-05-07 04:16 424K
20260507T00Z_MSC_GDPS_GeopotentialHeight_IsbL-0050_LatLon0.15_PT057H.grib2 2026-05-07 04:16 581K
20260507T00Z_MSC_GDPS_GeopotentialHeight_IsbL-0100_LatLon0.15_PT057H.grib2 2026-05-07 04:16 617K
20260507T00Z_MSC_GDPS_GeopotentialHeight_IsbL-0150_LatLon0.15_PT057H.grib2 2026-05-07 04:16 634K
20260507T00Z_MSC_GDPS_GeopotentialHeight_IsbL-0175_LatLon0.15_PT057H.grib2 2026-05-07 04:16 638K
20260507T00Z_MSC_GDPS_GeopotentialHeight_IsbL-0200_LatLon0.15_PT057H.grib2 2026-05-07 04:16 643K
20260507T00Z_MSC_GDPS_GeopotentialHeight_IsbL-0225_LatLon0.15_PT057H.grib2 2026-05-07 04:16 639K
20260507T00Z_MSC_GDPS_GeopotentialHeight_IsbL-0250_LatLon0.15_PT057H.grib2 2026-05-07 04:16 649K
20260507T00Z_MSC_GDPS_GeopotentialHeight_IsbL-0275_LatLon0.15_PT057H.grib2 2026-05-07 04:16 648K
20260507T00Z_MSC_GDPS_GeopotentialHeight_IsbL-0300_LatLon0.15_PT057H.grib2 2026-05-07 04:16 641K
20260507T00Z_MSC_GDPS_GeopotentialHeight_IsbL-0350_LatLon0.15_PT057H.grib2 2026-05-07 04:16 639K
20260507T00Z_MSC_GDPS_GeopotentialHeight_IsbL-0400_LatLon0.15_PT057H.grib2 2026-05-07 04:16 627K
20260507T00Z_MSC_GDPS_GeopotentialHeight_IsbL-0450_LatLon0.15_PT057H.grib2 2026-05-07 04:16 617K
20260507T00Z_MSC_GDPS_GeopotentialHeight_IsbL-0500_LatLon0.15_PT057H.grib2 2026-05-07 04:16 538K
20260507T00Z_MSC_GDPS_GeopotentialHeight_IsbL-0550_LatLon0.15_PT057H.grib2 2026-05-07 04:16 530K
20260507T00Z_MSC_GDPS_GeopotentialHeight_IsbL-0600_LatLon0.15_PT057H.grib2 2026-05-07 04:16 528K
20260507T00Z_MSC_GDPS_GeopotentialHeight_IsbL-0650_LatLon0.15_PT057H.grib2 2026-05-07 04:16 694K
20260507T00Z_MSC_GDPS_GeopotentialHeight_IsbL-0700_LatLon0.15_PT057H.grib2 2026-05-07 04:16 696K
20260507T00Z_MSC_GDPS_GeopotentialHeight_IsbL-0750_LatLon0.15_PT057H.grib2 2026-05-07 04:16 697K
20260507T00Z_MSC_GDPS_GeopotentialHeight_IsbL-0800_LatLon0.15_PT057H.grib2 2026-05-07 04:16 708K
20260507T00Z_MSC_GDPS_GeopotentialHeight_IsbL-0850_LatLon0.15_PT057H.grib2 2026-05-07 04:16 723K
20260507T00Z_MSC_GDPS_GeopotentialHeight_IsbL-0875_LatLon0.15_PT057H.grib2 2026-05-07 04:16 723K
20260507T00Z_MSC_GDPS_GeopotentialHeight_IsbL-0900_LatLon0.15_PT057H.grib2 2026-05-07 04:16 731K
20260507T00Z_MSC_GDPS_GeopotentialHeight_IsbL-0925_LatLon0.15_PT057H.grib2 2026-05-07 04:16 738K
20260507T00Z_MSC_GDPS_GeopotentialHeight_IsbL-0950_LatLon0.15_PT057H.grib2 2026-05-07 04:16 747K
20260507T00Z_MSC_GDPS_GeopotentialHeight_IsbL-0970_LatLon0.15_PT057H.grib2 2026-05-07 04:16 758K
20260507T00Z_MSC_GDPS_GeopotentialHeight_IsbL-0985_LatLon0.15_PT057H.grib2 2026-05-07 04:16 773K
20260507T00Z_MSC_GDPS_GeopotentialHeight_IsbL-1000_LatLon0.15_PT057H.grib2 2026-05-07 04:16 792K
20260507T00Z_MSC_GDPS_GeopotentialHeight_IsbL-1015_LatLon0.15_PT057H.grib2 2026-05-07 04:16 812K
20260507T00Z_MSC_GDPS_Humidex_Sfc_LatLon0.15_PT057H.grib2 2026-05-07 04:16 5.3M
20260507T00Z_MSC_GDPS_IcePellets-Accum1h_Sfc_LatLon0.15_PT057H.grib2 2026-05-07 04:16 15K
20260507T00Z_MSC_GDPS_IcePellets-Accum3h_Sfc_LatLon0.15_PT057H.grib2 2026-05-07 04:16 19K
20260507T00Z_MSC_GDPS_IcePellets-Accum_Sfc_LatLon0.15_PT057H.grib2 2026-05-07 04:16 71K
20260507T00Z_MSC_GDPS_KIndex_Sfc_LatLon0.15_PT057H.grib2 2026-05-07 04:16 6.4M
20260507T00Z_MSC_GDPS_LatentHeatNetFlux_Sfc_LatLon0.15_PT057H.grib2 2026-05-07 04:16 568K
20260507T00Z_MSC_GDPS_LiftedIndex-MU-VT_IsbL-0500_LatLon0.15_PT057H.grib2 2026-05-07 04:16 5.4M
20260507T00Z_MSC_GDPS_NetLongwaveRadiationFlux-Accum_Sfc_LatLon0.15_PT057H.grib2 2026-05-07 04:16 1.2M
20260507T00Z_MSC_GDPS_NetShortwaveRadiationFlux-Accum_Sfc_LatLon0.15_PT057H.grib2 2026-05-07 04:16 1.0M
20260507T00Z_MSC_GDPS_O3MixingRatio_Sfc_LatLon0.15_PT057H.grib2 2026-05-07 04:54 1.9M
20260507T00Z_MSC_GDPS_O3_EAtm_LatLon0.15_PT057H.grib2 2026-05-07 04:54 2.5M
20260507T00Z_MSC_GDPS_PlanetaryBoundaryLayerHeight_Sfc_LatLon0.15_PT057H.grib2 2026-05-07 04:16 2.5M
20260507T00Z_MSC_GDPS_Precip-Accum1h_Sfc_LatLon0.15_PT057H.grib2 2026-05-07 04:16 3.3M
20260507T00Z_MSC_GDPS_Precip-Accum3h_Sfc_LatLon0.15_PT057H.grib2 2026-05-07 04:16 3.6M
20260507T00Z_MSC_GDPS_Precip-Accum_Sfc_LatLon0.15_PT057H.grib2 2026-05-07 04:16 4.7M
20260507T00Z_MSC_GDPS_PrecipRate_Sfc_LatLon0.15_PT057H.grib2 2026-05-07 04:16 3.1M
20260507T00Z_MSC_GDPS_PrecipType-Instant_Sfc_LatLon0.15_PT057H.grib2 2026-05-07 04:16 1.6M
20260507T00Z_MSC_GDPS_Pressure_MSL_LatLon0.15_PT057H.grib2 2026-05-07 04:16 828K
20260507T00Z_MSC_GDPS_Pressure_PVU-1.5_LatLon0.15_PT057H.grib2 2026-05-07 04:16 5.8M
20260507T00Z_MSC_GDPS_Pressure_PVU-1_LatLon0.15_PT057H.grib2 2026-05-07 04:16 6.0M
20260507T00Z_MSC_GDPS_Pressure_PVU-2_LatLon0.15_PT057H.grib2 2026-05-07 04:16 5.6M
20260507T00Z_MSC_GDPS_Pressure_Sfc_LatLon0.15_PT057H.grib2 2026-05-07 04:16 1.1M
20260507T00Z_MSC_GDPS_RadiativeTemp_Sfc_LatLon0.15_PT057H.grib2 2026-05-07 04:16 498K
20260507T00Z_MSC_GDPS_Rain-Accum1h_Sfc_LatLon0.15_PT057H.grib2 2026-05-07 04:16 1.7M
20260507T00Z_MSC_GDPS_Rain-Accum3h_Sfc_LatLon0.15_PT057H.grib2 2026-05-07 04:16 1.7M
20260507T00Z_MSC_GDPS_Rain-Accum_Sfc_LatLon0.15_PT057H.grib2 2026-05-07 04:16 3.6M
20260507T00Z_MSC_GDPS_RelativeHumidity_AGL-2m_LatLon0.15_PT057H.grib2 2026-05-07 04:16 1.1M
20260507T00Z_MSC_GDPS_RelativeHumidity_IsbL-0010_LatLon0.15_PT057H.grib2 2026-05-07 04:16 159K
20260507T00Z_MSC_GDPS_RelativeHumidity_IsbL-0020_LatLon0.15_PT057H.grib2 2026-05-07 04:16 176K
20260507T00Z_MSC_GDPS_RelativeHumidity_IsbL-0030_LatLon0.15_PT057H.grib2 2026-05-07 04:16 195K
20260507T00Z_MSC_GDPS_RelativeHumidity_IsbL-0050_LatLon0.15_PT057H.grib2 2026-05-07 04:16 342K
20260507T00Z_MSC_GDPS_RelativeHumidity_IsbL-0100_LatLon0.15_PT057H.grib2 2026-05-07 04:16 509K
20260507T00Z_MSC_GDPS_RelativeHumidity_IsbL-0150_LatLon0.15_PT057H.grib2 2026-05-07 04:16 685K
20260507T00Z_MSC_GDPS_RelativeHumidity_IsbL-0175_LatLon0.15_PT057H.grib2 2026-05-07 04:16 611K
20260507T00Z_MSC_GDPS_RelativeHumidity_IsbL-0200_LatLon0.15_PT057H.grib2 2026-05-07 04:16 716K
20260507T00Z_MSC_GDPS_RelativeHumidity_IsbL-0225_LatLon0.15_PT057H.grib2 2026-05-07 04:16 796K
20260507T00Z_MSC_GDPS_RelativeHumidity_IsbL-0250_LatLon0.15_PT057H.grib2 2026-05-07 04:16 874K
20260507T00Z_MSC_GDPS_RelativeHumidity_IsbL-0275_LatLon0.15_PT057H.grib2 2026-05-07 04:16 896K
20260507T00Z_MSC_GDPS_RelativeHumidity_IsbL-0300_LatLon0.15_PT057H.grib2 2026-05-07 04:16 934K
20260507T00Z_MSC_GDPS_RelativeHumidity_IsbL-0350_LatLon0.15_PT057H.grib2 2026-05-07 04:16 943K
20260507T00Z_MSC_GDPS_RelativeHumidity_IsbL-0400_LatLon0.15_PT057H.grib2 2026-05-07 04:16 962K
20260507T00Z_MSC_GDPS_RelativeHumidity_IsbL-0450_LatLon0.15_PT057H.grib2 2026-05-07 04:16 1.0M
20260507T00Z_MSC_GDPS_RelativeHumidity_IsbL-0500_LatLon0.15_PT057H.grib2 2026-05-07 04:16 1.0M
20260507T00Z_MSC_GDPS_RelativeHumidity_IsbL-0550_LatLon0.15_PT057H.grib2 2026-05-07 04:16 1.1M
20260507T00Z_MSC_GDPS_RelativeHumidity_IsbL-0600_LatLon0.15_PT057H.grib2 2026-05-07 04:16 1.1M
20260507T00Z_MSC_GDPS_RelativeHumidity_IsbL-0650_LatLon0.15_PT057H.grib2 2026-05-07 04:16 1.0M
20260507T00Z_MSC_GDPS_RelativeHumidity_IsbL-0700_LatLon0.15_PT057H.grib2 2026-05-07 04:16 1.1M
20260507T00Z_MSC_GDPS_RelativeHumidity_IsbL-0750_LatLon0.15_PT057H.grib2 2026-05-07 04:16 1.2M
20260507T00Z_MSC_GDPS_RelativeHumidity_IsbL-0800_LatLon0.15_PT057H.grib2 2026-05-07 04:16 1.2M
20260507T00Z_MSC_GDPS_RelativeHumidity_IsbL-0850_LatLon0.15_PT057H.grib2 2026-05-07 04:16 1.3M
20260507T00Z_MSC_GDPS_RelativeHumidity_IsbL-0875_LatLon0.15_PT057H.grib2 2026-05-07 04:16 1.3M
20260507T00Z_MSC_GDPS_RelativeHumidity_IsbL-0900_LatLon0.15_PT057H.grib2 2026-05-07 04:16 1.3M
20260507T00Z_MSC_GDPS_RelativeHumidity_IsbL-0925_LatLon0.15_PT057H.grib2 2026-05-07 04:16 1.2M
20260507T00Z_MSC_GDPS_RelativeHumidity_IsbL-0950_LatLon0.15_PT057H.grib2 2026-05-07 04:16 1.2M
20260507T00Z_MSC_GDPS_RelativeHumidity_IsbL-0970_LatLon0.15_PT057H.grib2 2026-05-07 04:16 1.2M
20260507T00Z_MSC_GDPS_RelativeHumidity_IsbL-0985_LatLon0.15_PT057H.grib2 2026-05-07 04:16 1.1M
20260507T00Z_MSC_GDPS_RelativeHumidity_IsbL-1000_LatLon0.15_PT057H.grib2 2026-05-07 04:16 1.1M
20260507T00Z_MSC_GDPS_RelativeHumidity_IsbL-1015_LatLon0.15_PT057H.grib2 2026-05-07 04:16 1.0M
20260507T00Z_MSC_GDPS_RelativeVorticity_IsbL-0200_LatLon0.15_PT057H.grib2 2026-05-07 04:16 1.5M
20260507T00Z_MSC_GDPS_RelativeVorticity_IsbL-0250_LatLon0.15_PT057H.grib2 2026-05-07 04:16 1.3M
20260507T00Z_MSC_GDPS_RelativeVorticity_IsbL-0500_LatLon0.15_PT057H.grib2 2026-05-07 04:16 1.5M
20260507T00Z_MSC_GDPS_RelativeVorticity_IsbL-0700_LatLon0.15_PT057H.grib2 2026-05-07 04:16 1.3M
20260507T00Z_MSC_GDPS_RelativeVorticity_IsbL-0850_LatLon0.15_PT057H.grib2 2026-05-07 04:16 1.6M
20260507T00Z_MSC_GDPS_Runoff-Accum_Sfc_LatLon0.15_PT057H.grib2 2026-05-07 04:16 98K
20260507T00Z_MSC_GDPS_SensibleHeatNetFlux_Sfc_LatLon0.15_PT057H.grib2 2026-05-07 04:16 504K
20260507T00Z_MSC_GDPS_ShowalterIndex_IsbL-0500_LatLon0.15_PT057H.grib2 2026-05-07 04:16 6.2M
20260507T00Z_MSC_GDPS_Snow-Accum1h_Sfc_LatLon0.15_PT057H.grib2 2026-05-07 04:16 1.1M
20260507T00Z_MSC_GDPS_Snow-Accum3h_Sfc_LatLon0.15_PT057H.grib2 2026-05-07 04:16 1.1M
20260507T00Z_MSC_GDPS_Snow-Accum_Sfc_LatLon0.15_PT057H.grib2 2026-05-07 04:16 1.8M
20260507T00Z_MSC_GDPS_SnowDensity_Sfc_LatLon0.15_PT057H.grib2 2026-05-07 04:16 256K
20260507T00Z_MSC_GDPS_SnowDepth_Sfc_LatLon0.15_PT057H.grib2 2026-05-07 04:16 1.7M
20260507T00Z_MSC_GDPS_SoilTemp_DBS-0to10cm_LatLon0.15_PT057H.grib2 2026-05-07 04:16 507K
20260507T00Z_MSC_GDPS_SoilTemp_Sfc_LatLon0.15_PT057H.grib2 2026-05-07 04:16 593K
20260507T00Z_MSC_GDPS_SoilVolumetricIceContent_Sfc_LatLon0.15_PT057H.grib2 2026-05-07 04:16 181K
20260507T00Z_MSC_GDPS_SoilVolumetricWaterContent_DBS-0to10cm_LatLon0.15_PT057H.grib2 2026-05-07 04:16 598K
20260507T00Z_MSC_GDPS_SoilVolumetricWaterContent_DBS-0to1cm_LatLon0.15_PT057H.grib2 2026-05-07 04:16 649K
20260507T00Z_MSC_GDPS_SpecificHumidity_AGL-120m_LatLon0.15_PT057H.grib2 2026-05-07 04:16 1.1M
20260507T00Z_MSC_GDPS_SpecificHumidity_AGL-2m_LatLon0.15_PT057H.grib2 2026-05-07 04:16 1.2M
20260507T00Z_MSC_GDPS_SpecificHumidity_AGL-40m_LatLon0.15_PT057H.grib2 2026-05-07 04:16 1.1M
20260507T00Z_MSC_GDPS_SpecificHumidity_AGL-80m_LatLon0.15_PT057H.grib2 2026-05-07 04:16 1.1M
20260507T00Z_MSC_GDPS_SpecificHumidity_IsbL-0001_LatLon0.15_PT057H.grib2 2026-05-07 04:16 1.3M
20260507T00Z_MSC_GDPS_SpecificHumidity_IsbL-0005_LatLon0.15_PT057H.grib2 2026-05-07 04:16 1.2M
20260507T00Z_MSC_GDPS_SpecificHumidity_IsbL-0010_LatLon0.15_PT057H.grib2 2026-05-07 04:16 1.3M
20260507T00Z_MSC_GDPS_SpecificHumidity_IsbL-0020_LatLon0.15_PT057H.grib2 2026-05-07 04:16 1.3M
20260507T00Z_MSC_GDPS_SpecificHumidity_IsbL-0030_LatLon0.15_PT057H.grib2 2026-05-07 04:16 1.3M
20260507T00Z_MSC_GDPS_SpecificHumidity_IsbL-0050_LatLon0.15_PT057H.grib2 2026-05-07 04:16 1.6M
20260507T00Z_MSC_GDPS_SpecificHumidity_IsbL-0100_LatLon0.15_PT057H.grib2 2026-05-07 04:16 1.3M
20260507T00Z_MSC_GDPS_SpecificHumidity_IsbL-0150_LatLon0.15_PT057H.grib2 2026-05-07 04:16 1.3M
20260507T00Z_MSC_GDPS_SpecificHumidity_IsbL-0175_LatLon0.15_PT057H.grib2 2026-05-07 04:16 1.3M
20260507T00Z_MSC_GDPS_SpecificHumidity_IsbL-0200_LatLon0.15_PT057H.grib2 2026-05-07 04:16 1.3M
20260507T00Z_MSC_GDPS_SpecificHumidity_IsbL-0225_LatLon0.15_PT057H.grib2 2026-05-07 04:16 1.3M
20260507T00Z_MSC_GDPS_SpecificHumidity_IsbL-0250_LatLon0.15_PT057H.grib2 2026-05-07 04:16 1.2M
20260507T00Z_MSC_GDPS_SpecificHumidity_IsbL-0275_LatLon0.15_PT057H.grib2 2026-05-07 04:16 1.4M
20260507T00Z_MSC_GDPS_SpecificHumidity_IsbL-0300_LatLon0.15_PT057H.grib2 2026-05-07 04:16 1.3M
20260507T00Z_MSC_GDPS_SpecificHumidity_IsbL-0350_LatLon0.15_PT057H.grib2 2026-05-07 04:16 1.3M
20260507T00Z_MSC_GDPS_SpecificHumidity_IsbL-0400_LatLon0.15_PT057H.grib2 2026-05-07 04:16 1.5M
20260507T00Z_MSC_GDPS_SpecificHumidity_IsbL-0450_LatLon0.15_PT057H.grib2 2026-05-07 04:16 1.3M
20260507T00Z_MSC_GDPS_SpecificHumidity_IsbL-0500_LatLon0.15_PT057H.grib2 2026-05-07 04:16 1.5M
20260507T00Z_MSC_GDPS_SpecificHumidity_IsbL-0550_LatLon0.15_PT057H.grib2 2026-05-07 04:16 1.6M
20260507T00Z_MSC_GDPS_SpecificHumidity_IsbL-0600_LatLon0.15_PT057H.grib2 2026-05-07 04:16 1.4M
20260507T00Z_MSC_GDPS_SpecificHumidity_IsbL-0650_LatLon0.15_PT057H.grib2 2026-05-07 04:16 1.5M
20260507T00Z_MSC_GDPS_SpecificHumidity_IsbL-0700_LatLon0.15_PT057H.grib2 2026-05-07 04:16 1.6M
20260507T00Z_MSC_GDPS_SpecificHumidity_IsbL-0750_LatLon0.15_PT057H.grib2 2026-05-07 04:16 1.7M
20260507T00Z_MSC_GDPS_SpecificHumidity_IsbL-0800_LatLon0.15_PT057H.grib2 2026-05-07 04:16 1.9M
20260507T00Z_MSC_GDPS_SpecificHumidity_IsbL-0850_LatLon0.15_PT057H.grib2 2026-05-07 04:16 2.0M
20260507T00Z_MSC_GDPS_SpecificHumidity_IsbL-0875_LatLon0.15_PT057H.grib2 2026-05-07 04:16 2.0M
20260507T00Z_MSC_GDPS_SpecificHumidity_IsbL-0900_LatLon0.15_PT057H.grib2 2026-05-07 04:16 1.9M
20260507T00Z_MSC_GDPS_SpecificHumidity_IsbL-0925_LatLon0.15_PT057H.grib2 2026-05-07 04:16 1.6M
20260507T00Z_MSC_GDPS_SpecificHumidity_IsbL-0950_LatLon0.15_PT057H.grib2 2026-05-07 04:16 1.6M
20260507T00Z_MSC_GDPS_SpecificHumidity_IsbL-0970_LatLon0.15_PT057H.grib2 2026-05-07 04:16 1.5M
20260507T00Z_MSC_GDPS_SpecificHumidity_IsbL-0985_LatLon0.15_PT057H.grib2 2026-05-07 04:16 1.5M
20260507T00Z_MSC_GDPS_SpecificHumidity_IsbL-1000_LatLon0.15_PT057H.grib2 2026-05-07 04:16 1.5M
20260507T00Z_MSC_GDPS_SpecificHumidity_IsbL-1015_LatLon0.15_PT057H.grib2 2026-05-07 04:16 1.5M
20260507T00Z_MSC_GDPS_SpecificHumidity_Sfc_LatLon0.15_PT057H.grib2 2026-05-07 04:16 684K
20260507T00Z_MSC_GDPS_Thickness_IsbL-0850to0700_LatLon0.15_PT057H.grib2 2026-05-07 04:16 474K
20260507T00Z_MSC_GDPS_Thickness_IsbL-1000to0500_LatLon0.15_PT057H.grib2 2026-05-07 04:16 378K
20260507T00Z_MSC_GDPS_Thickness_IsbL-1000to0850_LatLon0.15_PT057H.grib2 2026-05-07 04:16 496K
20260507T00Z_MSC_GDPS_TotalCloudCover_Sfc_LatLon0.15_PT057H.grib2 2026-05-07 04:16 825K
20260507T00Z_MSC_GDPS_TotalTotalsIndex_Sfc_LatLon0.15_PT057H.grib2 2026-05-07 04:16 6.1M
20260507T00Z_MSC_GDPS_UVIndex-ClearSky_Sfc_LatLon0.15_PT057H.grib2 2026-05-07 04:54 1.1M
20260507T00Z_MSC_GDPS_UVIndex_Sfc_LatLon0.15_PT057H.grib2 2026-05-07 04:54 1.5M
20260507T00Z_MSC_GDPS_UpwardLongwaveRadiationFlux_NTAtm_LatLon0.15_PT057H.grib2 2026-05-07 04:16 839K
20260507T00Z_MSC_GDPS_VerticalVelocity_IsbL-0200_LatLon0.15_PT057H.grib2 2026-05-07 04:16 959K
20260507T00Z_MSC_GDPS_VerticalVelocity_IsbL-0250_LatLon0.15_PT057H.grib2 2026-05-07 04:16 1.1M
20260507T00Z_MSC_GDPS_VerticalVelocity_IsbL-0500_LatLon0.15_PT057H.grib2 2026-05-07 04:16 1.3M
20260507T00Z_MSC_GDPS_VerticalVelocity_IsbL-0600_LatLon0.15_PT057H.grib2 2026-05-07 04:16 1.1M
20260507T00Z_MSC_GDPS_VerticalVelocity_IsbL-0700_LatLon0.15_PT057H.grib2 2026-05-07 04:16 1.1M
20260507T00Z_MSC_GDPS_VerticalVelocity_IsbL-0850_LatLon0.15_PT057H.grib2 2026-05-07 04:16 1.3M
20260507T00Z_MSC_GDPS_WindChill_Sfc_LatLon0.15_PT057H.grib2 2026-05-07 04:16 5.3M
20260507T00Z_MSC_GDPS_WindDir_AGL-10m_LatLon0.15_PT057H.grib2 2026-05-07 04:16 1.3M
20260507T00Z_MSC_GDPS_WindDir_AGL-120m_LatLon0.15_PT057H.grib2 2026-05-07 04:16 1.3M
20260507T00Z_MSC_GDPS_WindDir_AGL-40m_LatLon0.15_PT057H.grib2 2026-05-07 04:16 1.3M
20260507T00Z_MSC_GDPS_WindDir_AGL-80m_LatLon0.15_PT057H.grib2 2026-05-07 04:16 1.3M
20260507T00Z_MSC_GDPS_WindDir_IsbL-0001_LatLon0.15_PT057H.grib2 2026-05-07 04:16 672K
20260507T00Z_MSC_GDPS_WindDir_IsbL-0005_LatLon0.15_PT057H.grib2 2026-05-07 04:16 823K
20260507T00Z_MSC_GDPS_WindDir_IsbL-0010_LatLon0.15_PT057H.grib2 2026-05-07 04:16 857K
20260507T00Z_MSC_GDPS_WindDir_IsbL-0020_LatLon0.15_PT057H.grib2 2026-05-07 04:16 942K
20260507T00Z_MSC_GDPS_WindDir_IsbL-0030_LatLon0.15_PT057H.grib2 2026-05-07 04:16 941K
20260507T00Z_MSC_GDPS_WindDir_IsbL-0050_LatLon0.15_PT057H.grib2 2026-05-07 04:16 959K
20260507T00Z_MSC_GDPS_WindDir_IsbL-0100_LatLon0.15_PT057H.grib2 2026-05-07 04:16 1.0M
20260507T00Z_MSC_GDPS_WindDir_IsbL-0150_LatLon0.15_PT057H.grib2 2026-05-07 04:16 1.0M
20260507T00Z_MSC_GDPS_WindDir_IsbL-0175_LatLon0.15_PT057H.grib2 2026-05-07 04:16 1.1M
20260507T00Z_MSC_GDPS_WindDir_IsbL-0200_LatLon0.15_PT057H.grib2 2026-05-07 04:16 1.1M
20260507T00Z_MSC_GDPS_WindDir_IsbL-0225_LatLon0.15_PT057H.grib2 2026-05-07 04:16 1.1M
20260507T00Z_MSC_GDPS_WindDir_IsbL-0250_LatLon0.15_PT057H.grib2 2026-05-07 04:16 1.1M
20260507T00Z_MSC_GDPS_WindDir_IsbL-0275_LatLon0.15_PT057H.grib2 2026-05-07 04:16 1.2M
20260507T00Z_MSC_GDPS_WindDir_IsbL-0300_LatLon0.15_PT057H.grib2 2026-05-07 04:16 1.2M
20260507T00Z_MSC_GDPS_WindDir_IsbL-0350_LatLon0.15_PT057H.grib2 2026-05-07 04:16 1.2M
20260507T00Z_MSC_GDPS_WindDir_IsbL-0400_LatLon0.15_PT057H.grib2 2026-05-07 04:16 1.3M
20260507T00Z_MSC_GDPS_WindDir_IsbL-0450_LatLon0.15_PT057H.grib2 2026-05-07 04:16 1.3M
20260507T00Z_MSC_GDPS_WindDir_IsbL-0500_LatLon0.15_PT057H.grib2 2026-05-07 04:16 1.3M
20260507T00Z_MSC_GDPS_WindDir_IsbL-0550_LatLon0.15_PT057H.grib2 2026-05-07 04:16 1.4M
20260507T00Z_MSC_GDPS_WindDir_IsbL-0600_LatLon0.15_PT057H.grib2 2026-05-07 04:16 1.4M
20260507T00Z_MSC_GDPS_WindDir_IsbL-0650_LatLon0.15_PT057H.grib2 2026-05-07 04:16 1.5M
20260507T00Z_MSC_GDPS_WindDir_IsbL-0700_LatLon0.15_PT057H.grib2 2026-05-07 04:16 1.6M
20260507T00Z_MSC_GDPS_WindDir_IsbL-0750_LatLon0.15_PT057H.grib2 2026-05-07 04:16 1.7M
20260507T00Z_MSC_GDPS_WindDir_IsbL-0800_LatLon0.15_PT057H.grib2 2026-05-07 04:16 1.8M
20260507T00Z_MSC_GDPS_WindDir_IsbL-0850_LatLon0.15_PT057H.grib2 2026-05-07 04:16 1.9M
20260507T00Z_MSC_GDPS_WindDir_IsbL-0875_LatLon0.15_PT057H.grib2 2026-05-07 04:16 1.9M
20260507T00Z_MSC_GDPS_WindDir_IsbL-0900_LatLon0.15_PT057H.grib2 2026-05-07 04:16 1.9M
20260507T00Z_MSC_GDPS_WindDir_IsbL-0925_LatLon0.15_PT057H.grib2 2026-05-07 04:16 1.9M
20260507T00Z_MSC_GDPS_WindDir_IsbL-0950_LatLon0.15_PT057H.grib2 2026-05-07 04:16 1.9M
20260507T00Z_MSC_GDPS_WindDir_IsbL-0970_LatLon0.15_PT057H.grib2 2026-05-07 04:16 1.9M
20260507T00Z_MSC_GDPS_WindDir_IsbL-0985_LatLon0.15_PT057H.grib2 2026-05-07 04:16 2.0M
20260507T00Z_MSC_GDPS_WindDir_IsbL-1000_LatLon0.15_PT057H.grib2 2026-05-07 04:16 2.0M
20260507T00Z_MSC_GDPS_WindDir_IsbL-1015_LatLon0.15_PT057H.grib2 2026-05-07 04:16 2.0M
20260507T00Z_MSC_GDPS_WindGust-Max_AGL-10m_LatLon0.15_PT057H.grib2 2026-05-07 04:16 2.2M
20260507T00Z_MSC_GDPS_WindGust-Min_AGL-10m_LatLon0.15_PT057H.grib2 2026-05-07 04:16 2.2M
20260507T00Z_MSC_GDPS_WindGust_AGL-10m_LatLon0.15_PT057H.grib2 2026-05-07 04:16 2.2M
20260507T00Z_MSC_GDPS_WindSpeed_AGL-10m_LatLon0.15_PT057H.grib2 2026-05-07 04:16 1.1M
20260507T00Z_MSC_GDPS_WindSpeed_AGL-120m_LatLon0.15_PT057H.grib2 2026-05-07 04:16 1.2M
20260507T00Z_MSC_GDPS_WindSpeed_AGL-40m_LatLon0.15_PT057H.grib2 2026-05-07 04:16 1.2M
20260507T00Z_MSC_GDPS_WindSpeed_AGL-80m_LatLon0.15_PT057H.grib2 2026-05-07 04:16 1.2M
20260507T00Z_MSC_GDPS_WindSpeed_IsbL-0001_LatLon0.15_PT057H.grib2 2026-05-07 04:16 656K
20260507T00Z_MSC_GDPS_WindSpeed_IsbL-0005_LatLon0.15_PT057H.grib2 2026-05-07 04:16 703K
20260507T00Z_MSC_GDPS_WindSpeed_IsbL-0010_LatLon0.15_PT057H.grib2 2026-05-07 04:16 636K
20260507T00Z_MSC_GDPS_WindSpeed_IsbL-0020_LatLon0.15_PT057H.grib2 2026-05-07 04:16 673K
20260507T00Z_MSC_GDPS_WindSpeed_IsbL-0030_LatLon0.15_PT057H.grib2 2026-05-07 04:16 876K
20260507T00Z_MSC_GDPS_WindSpeed_IsbL-0050_LatLon0.15_PT057H.grib2 2026-05-07 04:16 908K
20260507T00Z_MSC_GDPS_WindSpeed_IsbL-0100_LatLon0.15_PT057H.grib2 2026-05-07 04:16 1.1M
20260507T00Z_MSC_GDPS_WindSpeed_IsbL-0150_LatLon0.15_PT057H.grib2 2026-05-07 04:16 946K
20260507T00Z_MSC_GDPS_WindSpeed_IsbL-0175_LatLon0.15_PT057H.grib2 2026-05-07 04:16 1.0M
20260507T00Z_MSC_GDPS_WindSpeed_IsbL-0200_LatLon0.15_PT057H.grib2 2026-05-07 04:16 1.1M
20260507T00Z_MSC_GDPS_WindSpeed_IsbL-0225_LatLon0.15_PT057H.grib2 2026-05-07 04:16 1.1M
20260507T00Z_MSC_GDPS_WindSpeed_IsbL-0250_LatLon0.15_PT057H.grib2 2026-05-07 04:16 1.1M
20260507T00Z_MSC_GDPS_WindSpeed_IsbL-0275_LatLon0.15_PT057H.grib2 2026-05-07 04:16 1.1M
20260507T00Z_MSC_GDPS_WindSpeed_IsbL-0300_LatLon0.15_PT057H.grib2 2026-05-07 04:16 1.1M
20260507T00Z_MSC_GDPS_WindSpeed_IsbL-0350_LatLon0.15_PT057H.grib2 2026-05-07 04:16 1.1M
20260507T00Z_MSC_GDPS_WindSpeed_IsbL-0400_LatLon0.15_PT057H.grib2 2026-05-07 04:16 1.1M
20260507T00Z_MSC_GDPS_WindSpeed_IsbL-0450_LatLon0.15_PT057H.grib2 2026-05-07 04:16 1.1M
20260507T00Z_MSC_GDPS_WindSpeed_IsbL-0500_LatLon0.15_PT057H.grib2 2026-05-07 04:16 1.1M
20260507T00Z_MSC_GDPS_WindSpeed_IsbL-0550_LatLon0.15_PT057H.grib2 2026-05-07 04:16 1.1M
20260507T00Z_MSC_GDPS_WindSpeed_IsbL-0600_LatLon0.15_PT057H.grib2 2026-05-07 04:16 1.1M
20260507T00Z_MSC_GDPS_WindSpeed_IsbL-0650_LatLon0.15_PT057H.grib2 2026-05-07 04:16 1.4M
20260507T00Z_MSC_GDPS_WindSpeed_IsbL-0700_LatLon0.15_PT057H.grib2 2026-05-07 04:16 1.5M
20260507T00Z_MSC_GDPS_WindSpeed_IsbL-0750_LatLon0.15_PT057H.grib2 2026-05-07 04:16 1.6M
20260507T00Z_MSC_GDPS_WindSpeed_IsbL-0800_LatLon0.15_PT057H.grib2 2026-05-07 04:16 1.6M
20260507T00Z_MSC_GDPS_WindSpeed_IsbL-0850_LatLon0.15_PT057H.grib2 2026-05-07 04:16 1.7M
20260507T00Z_MSC_GDPS_WindSpeed_IsbL-0875_LatLon0.15_PT057H.grib2 2026-05-07 04:16 1.8M
20260507T00Z_MSC_GDPS_WindSpeed_IsbL-0900_LatLon0.15_PT057H.grib2 2026-05-07 04:16 1.8M
20260507T00Z_MSC_GDPS_WindSpeed_IsbL-0925_LatLon0.15_PT057H.grib2 2026-05-07 04:16 1.9M
20260507T00Z_MSC_GDPS_WindSpeed_IsbL-0950_LatLon0.15_PT057H.grib2 2026-05-07 04:16 1.9M
20260507T00Z_MSC_GDPS_WindSpeed_IsbL-0970_LatLon0.15_PT057H.grib2 2026-05-07 04:16 1.9M
20260507T00Z_MSC_GDPS_WindSpeed_IsbL-0985_LatLon0.15_PT057H.grib2 2026-05-07 04:16 1.8M
20260507T00Z_MSC_GDPS_WindSpeed_IsbL-1000_LatLon0.15_PT057H.grib2 2026-05-07 04:16 1.8M
20260507T00Z_MSC_GDPS_WindSpeed_IsbL-1015_LatLon0.15_PT057H.grib2 2026-05-07 04:16 1.8M
20260507T00Z_MSC_GDPS_WindU_AGL-10m_LatLon0.15_PT057H.grib2 2026-05-07 04:16 1.3M
20260507T00Z_MSC_GDPS_WindU_AGL-120m_LatLon0.15_PT057H.grib2 2026-05-07 04:16 1.0M
20260507T00Z_MSC_GDPS_WindU_AGL-40m_LatLon0.15_PT057H.grib2 2026-05-07 04:16 956K
20260507T00Z_MSC_GDPS_WindU_AGL-80m_LatLon0.15_PT057H.grib2 2026-05-07 04:16 960K
20260507T00Z_MSC_GDPS_WindU_IsbL-0001_LatLon0.15_PT057H.grib2 2026-05-07 04:16 507K
20260507T00Z_MSC_GDPS_WindU_IsbL-0005_LatLon0.15_PT057H.grib2 2026-05-07 04:16 699K
20260507T00Z_MSC_GDPS_WindU_IsbL-0010_LatLon0.15_PT057H.grib2 2026-05-07 04:16 709K
20260507T00Z_MSC_GDPS_WindU_IsbL-0020_LatLon0.15_PT057H.grib2 2026-05-07 04:16 737K
20260507T00Z_MSC_GDPS_WindU_IsbL-0030_LatLon0.15_PT057H.grib2 2026-05-07 04:16 749K
20260507T00Z_MSC_GDPS_WindU_IsbL-0050_LatLon0.15_PT057H.grib2 2026-05-07 04:16 774K
20260507T00Z_MSC_GDPS_WindU_IsbL-0100_LatLon0.15_PT057H.grib2 2026-05-07 04:16 868K
20260507T00Z_MSC_GDPS_WindU_IsbL-0150_LatLon0.15_PT057H.grib2 2026-05-07 04:16 1.0M
20260507T00Z_MSC_GDPS_WindU_IsbL-0175_LatLon0.15_PT057H.grib2 2026-05-07 04:16 1.0M
20260507T00Z_MSC_GDPS_WindU_IsbL-0200_LatLon0.15_PT057H.grib2 2026-05-07 04:16 1.1M
20260507T00Z_MSC_GDPS_WindU_IsbL-0225_LatLon0.15_PT057H.grib2 2026-05-07 04:16 856K
20260507T00Z_MSC_GDPS_WindU_IsbL-0250_LatLon0.15_PT057H.grib2 2026-05-07 04:16 859K
20260507T00Z_MSC_GDPS_WindU_IsbL-0275_LatLon0.15_PT057H.grib2 2026-05-07 04:16 885K
20260507T00Z_MSC_GDPS_WindU_IsbL-0300_LatLon0.15_PT057H.grib2 2026-05-07 04:16 876K
20260507T00Z_MSC_GDPS_WindU_IsbL-0350_LatLon0.15_PT057H.grib2 2026-05-07 04:16 892K
20260507T00Z_MSC_GDPS_WindU_IsbL-0400_LatLon0.15_PT057H.grib2 2026-05-07 04:16 1.1M
20260507T00Z_MSC_GDPS_WindU_IsbL-0450_LatLon0.15_PT057H.grib2 2026-05-07 04:16 1.1M
20260507T00Z_MSC_GDPS_WindU_IsbL-0500_LatLon0.15_PT057H.grib2 2026-05-07 04:16 1.1M
20260507T00Z_MSC_GDPS_WindU_IsbL-0550_LatLon0.15_PT057H.grib2 2026-05-07 04:16 1.1M
20260507T00Z_MSC_GDPS_WindU_IsbL-0600_LatLon0.15_PT057H.grib2 2026-05-07 04:16 1.1M
20260507T00Z_MSC_GDPS_WindU_IsbL-0650_LatLon0.15_PT057H.grib2 2026-05-07 04:16 1.2M
20260507T00Z_MSC_GDPS_WindU_IsbL-0700_LatLon0.15_PT057H.grib2 2026-05-07 04:16 1.2M
20260507T00Z_MSC_GDPS_WindU_IsbL-0750_LatLon0.15_PT057H.grib2 2026-05-07 04:16 1.3M
20260507T00Z_MSC_GDPS_WindU_IsbL-0800_LatLon0.15_PT057H.grib2 2026-05-07 04:16 1.4M
20260507T00Z_MSC_GDPS_WindU_IsbL-0850_LatLon0.15_PT057H.grib2 2026-05-07 04:16 1.4M
20260507T00Z_MSC_GDPS_WindU_IsbL-0875_LatLon0.15_PT057H.grib2 2026-05-07 04:16 1.4M
20260507T00Z_MSC_GDPS_WindU_IsbL-0900_LatLon0.15_PT057H.grib2 2026-05-07 04:16 1.5M
20260507T00Z_MSC_GDPS_WindU_IsbL-0925_LatLon0.15_PT057H.grib2 2026-05-07 04:16 1.4M
20260507T00Z_MSC_GDPS_WindU_IsbL-0950_LatLon0.15_PT057H.grib2 2026-05-07 04:16 1.4M
20260507T00Z_MSC_GDPS_WindU_IsbL-0970_LatLon0.15_PT057H.grib2 2026-05-07 04:16 1.4M
20260507T00Z_MSC_GDPS_WindU_IsbL-0985_LatLon0.15_PT057H.grib2 2026-05-07 04:16 1.4M
20260507T00Z_MSC_GDPS_WindU_IsbL-1000_LatLon0.15_PT057H.grib2 2026-05-07 04:16 1.4M
20260507T00Z_MSC_GDPS_WindU_IsbL-1015_LatLon0.15_PT057H.grib2 2026-05-07 04:16 1.3M
20260507T00Z_MSC_GDPS_WindV_AGL-10m_LatLon0.15_PT057H.grib2 2026-05-07 04:16 1.3M
20260507T00Z_MSC_GDPS_WindV_AGL-120m_LatLon0.15_PT057H.grib2 2026-05-07 04:16 963K
20260507T00Z_MSC_GDPS_WindV_AGL-40m_LatLon0.15_PT057H.grib2 2026-05-07 04:16 959K
20260507T00Z_MSC_GDPS_WindV_AGL-80m_LatLon0.15_PT057H.grib2 2026-05-07 04:16 963K
20260507T00Z_MSC_GDPS_WindV_IsbL-0001_LatLon0.15_PT057H.grib2 2026-05-07 04:16 725K
20260507T00Z_MSC_GDPS_WindV_IsbL-0005_LatLon0.15_PT057H.grib2 2026-05-07 04:16 775K
20260507T00Z_MSC_GDPS_WindV_IsbL-0010_LatLon0.15_PT057H.grib2 2026-05-07 04:16 804K
20260507T00Z_MSC_GDPS_WindV_IsbL-0020_LatLon0.15_PT057H.grib2 2026-05-07 04:16 939K
20260507T00Z_MSC_GDPS_WindV_IsbL-0030_LatLon0.15_PT057H.grib2 2026-05-07 04:16 947K
20260507T00Z_MSC_GDPS_WindV_IsbL-0050_LatLon0.15_PT057H.grib2 2026-05-07 04:16 1.0M
20260507T00Z_MSC_GDPS_WindV_IsbL-0100_LatLon0.15_PT057H.grib2 2026-05-07 04:16 858K
20260507T00Z_MSC_GDPS_WindV_IsbL-0150_LatLon0.15_PT057H.grib2 2026-05-07 04:16 1.0M
20260507T00Z_MSC_GDPS_WindV_IsbL-0175_LatLon0.15_PT057H.grib2 2026-05-07 04:16 817K
20260507T00Z_MSC_GDPS_WindV_IsbL-0200_LatLon0.15_PT057H.grib2 2026-05-07 04:16 904K
20260507T00Z_MSC_GDPS_WindV_IsbL-0225_LatLon0.15_PT057H.grib2 2026-05-07 04:16 913K
20260507T00Z_MSC_GDPS_WindV_IsbL-0250_LatLon0.15_PT057H.grib2 2026-05-07 04:16 914K
20260507T00Z_MSC_GDPS_WindV_IsbL-0275_LatLon0.15_PT057H.grib2 2026-05-07 04:16 938K
20260507T00Z_MSC_GDPS_WindV_IsbL-0300_LatLon0.15_PT057H.grib2 2026-05-07 04:16 930K
20260507T00Z_MSC_GDPS_WindV_IsbL-0350_LatLon0.15_PT057H.grib2 2026-05-07 04:16 944K
20260507T00Z_MSC_GDPS_WindV_IsbL-0400_LatLon0.15_PT057H.grib2 2026-05-07 04:16 886K
20260507T00Z_MSC_GDPS_WindV_IsbL-0450_LatLon0.15_PT057H.grib2 2026-05-07 04:16 885K
20260507T00Z_MSC_GDPS_WindV_IsbL-0500_LatLon0.15_PT057H.grib2 2026-05-07 04:16 1.1M
20260507T00Z_MSC_GDPS_WindV_IsbL-0550_LatLon0.15_PT057H.grib2 2026-05-07 04:16 1.1M
20260507T00Z_MSC_GDPS_WindV_IsbL-0600_LatLon0.15_PT057H.grib2 2026-05-07 04:16 1.1M
20260507T00Z_MSC_GDPS_WindV_IsbL-0650_LatLon0.15_PT057H.grib2 2026-05-07 04:16 1.2M
20260507T00Z_MSC_GDPS_WindV_IsbL-0700_LatLon0.15_PT057H.grib2 2026-05-07 04:16 1.2M
20260507T00Z_MSC_GDPS_WindV_IsbL-0750_LatLon0.15_PT057H.grib2 2026-05-07 04:16 1.3M
20260507T00Z_MSC_GDPS_WindV_IsbL-0800_LatLon0.15_PT057H.grib2 2026-05-07 04:16 1.3M
20260507T00Z_MSC_GDPS_WindV_IsbL-0850_LatLon0.15_PT057H.grib2 2026-05-07 04:16 1.4M
20260507T00Z_MSC_GDPS_WindV_IsbL-0875_LatLon0.15_PT057H.grib2 2026-05-07 04:16 1.4M
20260507T00Z_MSC_GDPS_WindV_IsbL-0900_LatLon0.15_PT057H.grib2 2026-05-07 04:16 1.4M
20260507T00Z_MSC_GDPS_WindV_IsbL-0925_LatLon0.15_PT057H.grib2 2026-05-07 04:16 1.4M
20260507T00Z_MSC_GDPS_WindV_IsbL-0950_LatLon0.15_PT057H.grib2 2026-05-07 04:16 1.4M
20260507T00Z_MSC_GDPS_WindV_IsbL-0970_LatLon0.15_PT057H.grib2 2026-05-07 04:16 1.4M
20260507T00Z_MSC_GDPS_WindV_IsbL-0985_LatLon0.15_PT057H.grib2 2026-05-07 04:16 1.4M
20260507T00Z_MSC_GDPS_WindV_IsbL-1000_LatLon0.15_PT057H.grib2 2026-05-07 04:16 1.4M
20260507T00Z_MSC_GDPS_WindV_IsbL-1015_LatLon0.15_PT057H.grib2 2026-05-07 04:16 1.3M